Weather History for Dryden, TX

Change the Weather History Date:

Friday, May 4, 2012

  Actual Average (KFST) Record (KFST)
Temperature  
Mean Temperature 82 °F -  
Max Temperature 99 °F 87 °F 100 °F (2012)
Min Temperature 66 °F 58 °F 46 °F (2013)
Cooling Degree Days 17    
Growing Degree Days 32 (Base 50)    
Moisture  
Dew Point 61 °F    
Average Humidity 53    
Maximum Humidity 81    
Minimum Humidity 20    
Precipitation  
Precipitation 0.00 in - - ()
Sea Level Pressure  
Sea Level Pressure 29.81 in    
Wind  
Wind Speed 5 mph (South)    
Max Wind Speed 24 mph    
Max Gust Speed 34 mph    
Averages and records for this station are not official NWS values.
T = Trace of Precipitation, MM = Missing Value Source: NWS Daily Summary

Daily Weather History Graph

Daily Weather History Graph

Search for Another Location

Airport:

Trip Planner

Search our weather history database for the weather conditions in past years. The results will help you decide how hot, cold, wet, or windy it might be!

Date:

Astronomy

May. 04, 2012 Rise Set
Actual Time 7:02 AM CDT 8:28 PM CDT
Civil Twilight 6:37 AM CDT 8:54 PM CDT
Nautical Twilight 6:06 AM CDT 9:24 PM CDT
Astronomical Twilight 5:35 AM CDT 9:56 PM CDT
Moon 7:11 PM CDT (5/4) 5:39 AM CDT (5/4)
Length of Visible Light 14h 16m
Length of Day
13h 25m
Waxing Gibbous, 97% of the Moon is Illuminated
May 4
Waxing Gibbous
May 5
Full
May 12
Last Quarter
May 20
New
May 28
First Quarter

Hourly Weather History & Observations

Time (CDT) Temp. Heat Index Dew Point Humidity Pressure Visibility Wind Dir Wind Speed Gust Speed Precip Events Conditions
12:53 AM 70.0 °F - 59.0 °F 68% 29.83 in - NW 4.6 mph - N/A   Unknown
1:53 AM 70.0 °F - 60.1 °F 71% 29.82 in - Calm Calm - N/A   Unknown
2:53 AM 71.1 °F - 60.1 °F 68% 29.82 in - Calm Calm - N/A   Unknown
3:53 AM 71.1 °F - 61.0 °F 70% 29.81 in - West 5.8 mph - N/A   Unknown
4:53 AM 72.0 °F - 59.0 °F 64% 29.81 in - WNW 3.5 mph - N/A   Unknown
5:53 AM 70.0 °F - 60.1 °F 71% 29.84 in - East 3.5 mph - N/A   Unknown
6:53 AM 66.0 °F - 60.1 °F 81% 29.87 in - Calm Calm - N/A   Unknown
7:53 AM 68.0 °F - 61.0 °F 78% 29.88 in - Calm Calm - N/A   Unknown
8:53 AM 75.0 °F - 61.0 °F 62% 29.88 in - West 3.5 mph - N/A   Unknown
9:53 AM 80.1 °F 80.9 °F 60.1 °F 50% 29.88 in - SW 5.8 mph - N/A   Unknown
10:53 AM 82.9 °F 83.2 °F 60.1 °F 46% 29.88 in - WSW 5.8 mph - N/A   Unknown
11:53 AM 87.1 °F 86.7 °F 60.1 °F 40% 29.88 in - SW 5.8 mph - N/A   Unknown
12:53 PM 88.0 °F 87.6 °F 60.1 °F 39% 29.86 in - SSW 3.5 mph - N/A   Unknown
1:53 PM 91.0 °F 90.2 °F 59.0 °F 34% 29.83 in - Calm Calm - N/A   Unknown
2:53 PM 93.9 °F 92.6 °F 57.0 °F 29% 29.80 in - Variable 3.5 mph - N/A   Unknown
3:53 PM 96.1 °F 94.5 °F 55.9 °F 26% 29.76 in - SSE 5.8 mph - N/A   Unknown
4:53 PM 96.1 °F 93.8 °F 54.0 °F 24% 29.74 in - East 9.2 mph - N/A   Unknown
5:53 PM 98.1 °F - 50.0 °F 20% 29.71 in - ESE 6.9 mph 16.1 mph N/A   Unknown
6:53 PM 91.9 °F 91.8 °F 61.0 °F 35% 29.73 in - ESE 24.2 mph 34.5 mph N/A   Unknown
7:53 PM 87.1 °F 89.9 °F 66.9 °F 51% 29.73 in - SE 18.4 mph 26.5 mph N/A   Unknown
8:53 PM 86.0 °F 88.8 °F 66.9 °F 53% 29.74 in - SE 12.7 mph 20.7 mph N/A   Unknown
9:53 PM 84.0 °F 87.0 °F 68.0 °F 58% 29.75 in - ESE 10.4 mph - N/A   Unknown
10:53 PM 82.0 °F 84.9 °F 68.0 °F 62% 29.77 in - SSE 3.5 mph - N/A   Unknown
11:53 PM 81.0 °F 83.8 °F 68.0 °F 65% 29.76 in - East 3.5 mph - N/A   Unknown